weather.gov     
National Weather Service

Terminal Aerodrome Forecast
NWS Homepage
This page is being discontinued on March 12, 2014.
The same data is available at this site. Please update your bookmarks.
Thank you, and we apologize for the inconvenience.
Please send an email to SR-SRH.Webmaster@noaa.gov with any concerns.


Current Version
Previous Version:    01  02  03  04  05  06  07  08  09  10  11  12  13  14  15  16  17  18  19  20  21  22  23  24  25  26  27  28  29  30  
   31  
[Printable]
787
FTUS46 KOTX 182320
TAFCOE
TAF
KCOE 182320Z 1900/1924 23015KT P6SM VCSH BKN080 OVC100
     FM190300 20010KT P6SM SCT100 BKN120
     FM190900 19006KT P6SM SCT015 BKN150
     FM191800 22010KT P6SM SCT150
      AMD LTD TO CLD AND VIS=




787
FTUS46 KOTX 182320
TAFCOE
TAF
KCOE 182320Z 1900/1924 23015KT P6SM VCSH BKN080 OVC100
     FM190300 20010KT P6SM SCT100 BKN120
     FM190900 19006KT P6SM SCT015 BKN150
     FM191800 22010KT P6SM SCT150
      AMD LTD TO CLD AND VIS=


U.S. Dept. of Commerce
NOAA National Weather Service
1325 East West Highway
Silver Spring, MD 20910
E-mail: w-nws.webmaster@noaa.gov
Page last modified: May 16, 2007
NATIONAL WEATHER SERVICE: for Safety, for Work, for Fun - FOR LIFE